Home   Weather   Dessau-Rosslau   Past weeks

Flag for Germany Past Weather in Dessau-Rosslau, Saxony-Anhalt, Germany — Yesterday and Last 2 Weeks

Now
55 °F

Sunny.


Feels Like: 54 °F
Forecast: 59 / 75 °F
Wind: 7 mph from Southwest

Location: Leipzig-Schkeuditz

Current Time: Sep 28, 2016 at 9:04:12 AM

Latest Report: Sep 28, 2016 at 8:20 AM


Visibility: 10 mi

Pressure: 30.27 "Hg

Humidity: 94%

Dew Point: 54 °F

Location of Dessau-RosslauLocation

Past Weather in Dessau-Rosslau — Graph

°F

Dessau-Rosslau Temperature Yesterday

Maximum temperature yesterday: 70 °F (at 2:50 PM)
Minimum temperature yesterday: 50 °F (at 6:20 AM)
Average temperature yesterday: 60 °F

High & Low Weather Summary for the Past Weeks

 TemperatureHumidityPressure
High88 °F (Sep 13, 2:20 PM)100% (Sep 16, 11:50 PM)30.33 "Hg (Sep 16, 11:50 PM)
Low48 °F (Sep 22, 6:50 AM)27% (Sep 13, 3:50 PM)29.86 "Hg (Sep 17, 3:50 AM)
Average62 °F72%30.08 "Hg
* Reported Sep 13 7:20 AM — Sep 28 7:50 AM, Dessau-Rosslau, Weather by CustomWeather, © 2016

Note: Actual official high and low records may vary slightly from our data, if they occured in-between our weather recording intervals... More about our weather records

Advertising

Dessau-Rosslau Weather History for the Previous 24 Hours

Scroll right to see more
 ConditionsComfort  
Time TempWeatherWind HumidityBarometerVisibility
7:50 AM
Wed, Sep 28
55 °FSunny.9 mph94%30.24 "Hg10 mi
7:20 AM55 °FSunny.9 mph88%30.27 "Hg10 mi
6:50 AM55 °FClear.10 mph94%30.27 "Hg10 mi
6:20 AM54 °FClear.8 mph94%30.27 "Hg10 mi
5:50 AM55 °FClear.9 mph88%30.27 "Hg10 mi
5:20 AM55 °FClear.9 mph94%30.27 "Hg10 mi
4:50 AM55 °FClear.9 mph88%30.27 "Hg10 mi
4:20 AM55 °FClear.8 mph88%30.27 "Hg10 mi
3:50 AM55 °FClear.9 mph94%30.27 "Hg10 mi
3:20 AM55 °FClear.9 mph94%30.27 "Hg10 mi
2:50 AM57 °FClear.8 mph88%30.27 "Hg10 mi
2:20 AM57 °FClear.8 mph88%30.30 "Hg10 mi
1:50 AM57 °FClear.8 mph88%30.30 "Hg10 mi
1:20 AM57 °FClear.9 mph88%30.30 "Hg10 mi
12:50 AM57 °FClear.8 mph88%30.30 "Hg10 mi
12:20 AM57 °FClear.9 mph88%30.30 "Hg10 mi
11:50 PM
Tue, Sep 27
57 °FClear.8 mph88%30.30 "Hg10 mi
11:20 PM57 °FClear.7 mph88%30.30 "Hg10 mi
10:50 PM57 °FClear.7 mph88%30.30 "Hg10 mi
10:20 PM57 °FClear.6 mph88%30.30 "Hg10 mi
9:50 PM59 °FPassing clouds.6 mph82%30.30 "HgN/A
9:20 PM59 °FPassing clouds.6 mph88%30.30 "HgN/A
8:50 PM59 °FClear.6 mph82%30.30 "Hg10 mi
8:20 PM61 °FPassing clouds.6 mph77%30.30 "HgN/A
7:50 PM63 °FPassing clouds.5 mph77%30.30 "HgN/A
7:20 PM63 °FPassing clouds.2 mph77%30.30 "HgN/A
6:50 PM64 °FScattered clouds.3 mph73%30.30 "HgN/A
6:20 PM66 °FScattered clouds.5 mph68%30.30 "HgN/A
5:50 PM70 °FScattered clouds.3 mph60%30.30 "HgN/A
5:20 PM70 °FPassing clouds.5 mph60%30.30 "HgN/A
4:50 PM70 °FPassing clouds.3 mph60%30.30 "HgN/A
4:20 PM70 °FPassing clouds.1 mph60%30.30 "HgN/A
3:50 PM70 °FPassing clouds.5 mph60%30.30 "HgN/A
3:20 PM70 °FPassing clouds.3 mph60%30.30 "HgN/A
2:50 PM70 °FPassing clouds.3 mph57%30.30 "HgN/A
2:20 PM68 °FPassing clouds.2 mph60%30.30 "HgN/A
1:50 PM68 °FPassing clouds.2 mph64%30.30 "HgN/A
1:20 PM68 °FPassing clouds.2 mph64%30.30 "HgN/A
12:50 PM66 °FPassing clouds.3 mph68%30.30 "HgN/A
12:20 PM64 °FPassing clouds.3 mph73%30.30 "HgN/A
11:50 AM63 °FScattered clouds.3 mph83%30.30 "HgN/A
11:20 AM63 °FPartly sunny.5 mph83%30.30 "Hg5 mi
10:50 AM61 °FLow clouds.7 mph88%30.30 "Hg4 mi
10:20 AM59 °FFog.5 mph94%30.30 "Hg3 mi
9:50 AM57 °FFog.6 mph100%30.27 "Hg3 mi
9:20 AM55 °FFog.7 mph100%30.27 "Hg3 mi
Weather by CustomWeather, © 2016

See weather overviewHow to use our weather pages